Location: Hall+in+Tirol
(47.2830°N, 11.5170°E)
Time: 10:28:02
(UTC+02:00)

Gurwin Techsat 1B - Visible Passes

Search period start: 31 March 2015 00:00
Search period end: 10 April 2015 00:00
Orbit: 812 x 814 km, 98.5° (Epoch: 30 March)

Date Brightness Start Highest point End Pass type
(mag) Time Alt. Az. Time Alt. Az. Time Alt. Az.
31 Mar 10.8 02:39:23 10° NE 02:42:42 17° E 02:42:42 17° E visible
31 Mar 8.5 04:18:04 10° N 04:23:24 72° WNW 04:23:56 66° WSW visible
31 Mar 10.5 06:00:08 10° NNW 06:02:34 13° NW 06:04:45 10° W visible
01 Apr 11.2 02:18:32 10° ENE 02:19:39 11° E 02:19:50 11° E visible
01 Apr 8.6 03:55:20 10° NNE 04:00:41 76° ESE 04:01:03 72° SE visible
01 Apr 10.2 05:36:27 10° NNW 05:40:09 19° WNW 05:42:17 15° W visible
02 Apr 9.2 03:32:44 10° NNE 03:37:54 49° E 03:38:11 49° ESE visible
02 Apr 9.7 05:13:12 10° N 05:17:40 27° WNW 05:19:24 22° W visible
03 Apr 9.9 03:10:18 10° NNE 03:15:01 32° E 03:15:18 32° E visible
03 Apr 9.2 04:50:09 10° N 04:55:06 40° WNW 04:56:32 33° WSW visible
04 Apr 10.5 02:48:08 10° NE 02:52:02 21° E 02:52:26 21° E visible
04 Apr 8.7 04:27:14 10° N 04:32:29 60° WNW 04:33:39 48° WSW visible
04 Apr 10.6 06:10:03 10° NW 06:11:31 11° NW 06:12:44 10° WNW visible
05 Apr 11.0 02:26:33 10° ENE 02:28:57 13° E 02:29:34 13° E visible
05 Apr 8.5 04:04:26 10° NNE 04:09:48 89° E 04:10:47 61° SSW visible
05 Apr 10.3 05:45:53 10° NNW 05:49:08 16° WNW 05:52:00 11° W visible
06 Apr 8.9 03:41:47 10° NNE 03:47:02 59° E 03:47:54 52° SE visible
06 Apr 9.9 05:22:30 10° N 05:26:41 23° WNW 05:29:08 17° W visible
07 Apr 9.6 03:19:15 10° NNE 03:24:12 38° E 03:25:01 36° ESE visible
07 Apr 9.4 04:59:22 10° N 05:04:09 34° WNW 05:06:15 25° WSW visible
08 Apr 10.2 02:56:57 10° NE 03:01:15 25° E 03:02:09 24° ESE visible
08 Apr 8.9 04:36:25 10° N 04:41:33 51° WNW 04:43:22 35° WSW visible
09 Apr 10.8 02:35:04 10° NE 02:38:13 16° E 02:39:15 16° E visible
09 Apr 8.5 04:13:34 10° NNE 04:18:54 77° WNW 04:20:29 47° SSW visible
09 Apr 10.5 05:55:25 10° NNW 05:58:07 14° NW 06:00:35 10° W visible
